Preview of NWS' New Version of Forecast
This preview is not operational and should not be used for support decisions.

Regional Weather Roundup (RWR)

Issued by National Weather Service (NWS)

                            
000
ASUS44 KMEG 252210
RWRTN 
TENNESSEE HOURLY STATE WEATHER ROUNDUP
NATIONAL WEATHER SERVICE MEMPHIS TN
500 PM CDT THU APR 25 2019

TNZ002-004-019-021-049-052-054-088>092-252300-
WEST TENNESSEE
  
CITY           SKY/WX    TMP DP  RH WIND       PRES   REMARKS
MEMPHIS INTL   LGT RAIN  66  64  93 S9        29.70R                  
NWS MEMPHIS      N/A     67 N/A N/A MISG        N/A                   
JACKSON        CLOUDY    66  60  81 SW15G22   29.71R                  
DYERSBURG      CLOUDY    66  62  87 S7        29.69R                  
SOMERVILLE     CLOUDY    64  63  94 S9        29.70R                  
COVINGTON      CLOUDY    66  63  88 S13G18    29.69R                  
UNION CITY     CLOUDY    64  64 100 S10       29.67R FOG              
BOLIVAR        CLOUDY    66  61  82 S14G21    29.70S                  
PARIS          CLOUDY    68  59  73 S10       29.68S                  
HUNTINGDON     CLOUDY    68  59  73 S12G23    29.69R                  
LEXINGTON      CLOUDY    64  61  88 S10G20    29.71S                  
SELMER         PTSUNNY   63  61  94 S5        29.71S                  
SAVANNAH       CLOUDY    64  59  82 S9G16     29.72S                  
$$

TNZ008-025-027-028-033-062-065-066-252300-
NORTH MIDDLE TENNESSEE
  
CITY           SKY/WX    TMP DP  RH WIND       PRES   REMARKS
NASHVILLE      CLOUDY    70  57  63 S13G23    29.73S                  
DICKSON        CLEAR     68  55  64 SW16G23   29.70F                  
PORTLAND       PTSUNNY   72  59  64 S15       29.70S                  
CLARKSVILLE    FAIR      70  53  54 SW15G28   29.68F                  
LEBANON        PTCLDY    68  61  77 S10G17    29.71S                  
SMYRNA         PTSUNNY   68  61  78 SW9       29.74F                  
MURFREESBORO   MOCLDY    68  61  77 S9        29.71S                  
COOKEVILLE     MOSUNNY   64  61  88 S10       29.76F                  
LIVINGSTON     CLEAR     63  61  94 SW7       29.76F FOG              
GALLATIN       MOCLDY    70  59  68 VRB7G16   29.74S                  
CROSSVILLE     PTSUNNY   66  57  72 S9        29.81F                  
ROCKWOOD       CLEAR     68  59  73 S9        29.81F                  
$$

TNZ061-075-076-078-094-096-097-252300-
SOUTH MIDDLE TENNESSEE
  
CITY           SKY/WX    TMP DP  RH WIND       PRES   REMARKS
LAWRENCEBURG   MOCLDY    63  57  82 S9G17     29.75S                  
LEWISBURG      MOCLDY    66  59  77 S8G15     29.74R                  
FAYETTEVILLE   MOSUNNY   63  61  94 SW10      29.78R                  
TULLAHOMA      SUNNY     63  59  88 S14G20    29.74F                  
WINCHESTER     CLOUDY    64  57  77 S9        29.77F                  
MCMINNVILLE    PTSUNNY   64  59  82 VRB7G13   29.75F                  
COLUMBIA       PTSUNNY   66  61  82 S13G22    29.72S                  
SHELBYVILLE    SUNNY     64  59  82 S12G17    29.74S                  
$$

TNZ017-018-042-046-047-252300-
NORTHEAST TENNESSEE
  
CITY           SKY/WX    TMP DP  RH WIND       PRES   REMARKS
TRI CITIES     CLOUDY    71  56  58 SW5       29.83R                  
ELIZABETHTON   FAIR      72  59  64 W5        29.83R                  
GREENEVILLE    CLEAR     70  59  68 CALM      29.82F                  
$$

TNZ012-013-036-069-073-074-252300-
CENTRAL EAST TENNESSEE
  
CITY           SKY/WX    TMP DP  RH WIND       PRES   REMARKS
KNOXVILLE      CLOUDY    72  61  68 SW10      29.80F                  
OAK RIDGE      FAIR      75  56  51 VRB7      29.81F                  
DOWNTOWN KNOXV MOSUNNY   73  63  68 SW6       29.81S                  
GATLINBURG     SUNNY     73  63  68 CALM      29.80F                  
MORRISTOWN     SUNNY     72  61  68 CALM      29.81S                  
JACKSBORO      SUNNY     72  57  60 SW13      29.83F                  
$$

TNZ083-085-099-252300-
SOUTHEAST TENNESSEE
  
CITY           SKY/WX    TMP DP  RH WIND       PRES   REMARKS
CHATTANOOGA    CLOUDY    75  54  47 SW16G25   29.80F                  
DAYTON         CLEAR     73  59  60 S9        29.78F                  
$$

SKY/WX REPORTED AS FAIR MEANS FEW OR NO CLOUDS BELOW
12 THOUSAND FEET.